Date,TemperatureHighF,TemperatureAvgF,TemperatureLowF,DewpointHighF,DewpointAvgF,DewpointLowF,HumidityHigh,HumidityAvg,HumidityLow,PressureMaxIn,PressureMinIn,WindSpeedMaxMPH,WindSpeedAvgMPH,GustSpeedMaxMPH,PrecipitationSumIn
2013-1-1,19,16,14,14,12,10,87,83,76,0.00,40.00,3,1,9,0.00
2013-1-2,17,14,13,13,11,10,91,86,83,0.00,40.00,5,2,9,0.00
2013-1-3,31,16,10,11,8,6,85,74,40,0.00,40.00,4,2,7,0.00
2013-1-4,27,16,11,12,8,6,83,73,48,0.00,40.00,3,1,7,0.00
2013-1-5,30,14,7,13,7,4,88,75,48,0.00,40.00,4,1,7,0.00
2013-1-6,28,20,14,17,12,9,82,73,62,0.00,40.00,6,2,9,0.00
2013-1-7,22,19,16,20,15,10,93,85,72,0.00,40.00,7,2,12,0.00
2013-1-8,32,27,22,31,25,20,97,95,90,0.00,40.00,4,2,8,0.00
2013-1-9,34,32,30,32,31,29,99,94,85,0.00,40.00,7,3,15,0.08
2013-1-10,32,26,22,32,22,18,99,85,70,0.00,40.00,0,0,0,0.01
2013-1-11,30,21,14,18,12,6,85,69,54,0.00,40.00,11,2,21,0.01
2013-1-12,26,14,9,11,6,2,79,70,48,0.00,40.00,5,2,10,0.10
2013-1-13,22,12,7,7,4,2,86,72,52,0.00,40.00,7,2,13,0.01
2013-1-14,17,10,5,9,5,1,87,80,64,0.00,40.00,3,1,5,0.01
2013-1-15,31,16,12,16,10,8,89,76,49,0.00,40.00,3,1,5,0.26
2013-1-16,28,14,8,11,8,4,89,79,46,0.00,40.00,2,1,4,0.20
2013-1-17,34,12,9,13,7,5,89,79,37,0.00,40.00,2,1,5,0.01
2013-1-18,31,14,10,13,8,6,86,78,42,0.00,40.00,4,1,6,0.00
2013-1-19,35,15,9,14,8,6,87,77,39,0.00,40.00,2,0,4,0.00
2013-1-20,28,15,9,13,8,5,86,77,50,0.00,40.00,4,1,4,0.00
2013-1-21,33,15,8,14,8,5,88,76,42,0.00,40.00,2,0,4,0.00
2013-1-22,35,17,12,15,10,8,85,75,43,0.00,40.00,4,1,6,0.01
2013-1-23,26,20,15,18,13,10,79,74,60,0.00,40.00,5,2,11,0.01
2013-1-24,35,30,23,34,29,18,99,95,79,0.00,40.00,6,2,11,0.27
2013-1-25,38,35,31,36,34,31,100,97,92,0.00,40.00,9,3,19,0.79
2013-1-26,36,34,31,36,34,31,100,98,94,0.00,40.00,7,2,12,0.71
2013-1-27,40,30,24,31,23,19,99,76,50,0.00,40.00,6,3,13,0.06
2013-1-28,30,24,22,24,22,19,95,89,78,0.00,40.00,10,3,15,0.04
2013-1-29,38,30,24,31,27,23,99,90,73,0.00,40.00,7,3,11,0.36
2013-1-30,48,34,30,35,31,29,99,91,61,0.00,40.00,4,1,10,0.25
2013-1-31,41,36,33,35,33,31,95,88,77,0.00,40.00,4,2,6,0.01